IK3CSU Weather Reports


time (UTC)temp
C
wind
direction
speed
KPH
gust
KPH
rain 1hr
cm
rain 24hr
cm
rain mn
cm
humidity
%
barometer
mb
20260906103858 30 91 6.4 17.7 0.00 0.00 0.00 31 1014.6
20260906102958 30 91 6.4 14.5 0.00 0.00 0.00 31 1014.6
20260906102312 30 92 6.4 14.5 0.00 0.00 0.00 31 1014.7
20260906101158 30 41 4.8 12.9 0.00 0.00 0.00 31 1014.8
20260906100258 29 70 6.4 14.5 0.00 0.00 0.00 32 1014.7
20260906095609 29 42 6.4 14.5 0.00 0.00 0.00 32 1015.0
20260906094458 29 47 6.4 17.7 0.00 0.00 0.00 33 1015.0
20260906093809 29 33 4.8 14.5 0.00 0.00 0.00 33 1015.0
20260906092911 29 51 6.4 16.1 0.00 0.00 0.00 35 1015.1
20260906092008 28 84 8.0 22.5 0.00 0.00 0.00 35 1015.1
20260906091111 28 63 8.0 16.1 0.00 0.00 0.00 34 1015.2
20260906090208 28 61 6.4 14.5 0.00 0.00 0.00 34 1015.1
20260906085058 28 78 8.0 17.7 0.00 0.00 0.00 35 1015.1
20260906084158 28 43 8.0 20.9 0.00 0.00 0.00 37 1015.1
20260906083510 28 42 8.0 17.7 0.00 0.00 0.00 38 1015.1
20260906082358 27 72 8.0 22.5 0.00 0.00 0.00 39 1015.1
20260906081710 27 45 8.0 20.9 0.00 0.00 0.00 39 1015.1
20260906080812 27 24 6.4 12.9 0.00 0.00 0.00 43 1015.0
20260906075910 27 53 6.4 19.3 0.00 0.00 0.00 43 1015.1
20260906075012 27 28 8.0 17.7 0.00 0.00 0.00 44 1015.1
20260906073858 26 18 8.0 17.7 0.00 0.00 0.00 47 1014.9
20260906072958 26 34 6.4 16.1 0.00 0.00 0.00 48 1014.9
20260906072309 26 46 6.4 14.5 0.00 0.00 0.00 49 1014.9
20260906071158 25 33 6.4 14.5 0.00 0.00 0.00 52 1014.7
20260906070509 25 42 4.8 12.9 0.00 0.00 0.00 55 1014.9
20260906065358 25 34 4.8 12.9 0.00 0.00 0.00 57 1014.9
20260906064458 24 24 6.4 12.9 0.00 0.00 0.00 59 1014.7
20260906063558 23 19 6.4 12.9 0.00 0.00 0.00 61 1014.6
20260906062658 23 9 6.4 12.9 0.00 0.00 0.00 63 1014.5
20260906062010 23 8 6.4 12.9 0.00 0.00 0.00 64 1014.5
20260906060858 22 360 4.8 11.3 0.00 0.00 0.00 66 1014.3
20260906060210 22 3 6.4 12.9 0.00 0.00 0.00 66 1014.2
20260906055058 22 17 6.4 12.9 0.00 0.00 0.00 67 1014.0
20260906054158 22 10 6.4 12.9 0.00 0.00 0.00 67 1013.9
20260906053512 21 6 4.8 12.9 0.00 0.00 0.00 68 1013.8
20260906052358 21 19 6.4 12.9 0.00 0.00 0.00 69 1013.7
20260906051458 21 360 6.4 12.9 0.00 0.00 0.00 69 1013.5
20260906050809 21 352 6.4 11.3 0.00 0.00 0.00 69 1013.5
20260906045911 21 20 6.4 12.9 0.00 0.00 0.00 69 1013.3
20260906044758 21 9 6.4 16.1 0.00 0.00 0.00 69 1013.3
20260906044111 21 10 6.4 14.5 0.00 0.00 0.00 69 1013.3
20260906043208 21 14 6.4 12.9 0.00 0.00 0.00 69 1013.1
20260906042058 21 16 6.4 12.9 0.00 0.00 0.00 70 1013.0
20260906041408 21 11 4.8 12.9 0.00 0.00 0.00 70 1013.1
20260906040511 21 4 4.8 12.9 0.00 0.00 0.00 70 1013.1
20260906035358 21 8 4.8 12.9 0.00 0.00 0.00 70 1012.9
20260906034458 21 9 4.8 12.9 0.00 0.00 0.00 70 1012.8
20260906033558 21 16 6.4 12.9 0.00 0.00 0.00 70 1012.8
20260906032658 21 13 4.8 9.7 0.00 0.00 0.00 70 1012.9
20260906031758 21 17 3.2 8.0 0.00 0.00 0.00 69 1012.8
20260906031110 21 9 3.2 6.4 0.00 0.00 0.00 69 1012.8
20260906030212 21 10 3.2 9.7 0.00 0.00 0.00 69 1012.8
20260906025058 21 342 4.8 9.7 0.00 0.00 0.00 69 1012.7
20260906024158 21 18 4.8 9.7 0.00 0.00 0.00 69 1012.6
20260906023509 21 11 3.2 9.7 0.00 0.00 0.00 69 1012.6
20260906022358 21 360 3.2 8.0 0.00 0.00 0.00 68 1012.6
20260906021458 21 17 3.2 6.4 0.00 0.00 0.00 68 1012.6
20260906020811 21 360 3.2 6.4 0.00 0.00 0.00 68 1012.6
20260906015908 22 355 3.2 6.4 0.00 0.00 0.00 67 1012.5
20260906014758 22 15 3.2 6.4 0.00 0.00 0.00 67 1012.5
20260906013858 22 17 3.2 6.4 0.00 0.00 0.00 67 1012.4
20260906012958 22 20 3.2 6.4 0.00 0.00 0.00 68 1012.3
20260906012308 22 13 3.2 6.4 0.00 0.00 0.00 68 1012.4
20260906011158 22 56 3.2 6.4 0.00 0.00 0.00 69 1012.3
20260906010258 22 23 3.2 6.4 0.00 0.00 0.00 70 1012.3
20260906005358 22 7 1.6 6.4 0.00 0.00 0.00 71 1012.4
20260906004712 22 22 1.6 4.8 0.00 0.00 0.00 71 1012.3
20260906003809 22 360 1.6 4.8 0.00 0.00 0.00 72 1012.4
20260906002658 22 10 3.2 6.4 0.00 0.00 0.00 73 1012.3
20260906001758 22 358 1.6 6.4 0.00 0.00 0.00 74 1012.3
20260906001111 22 335 3.2 6.4 0.00 0.00 0.00 75 1012.2
20260906000211 22 3 3.2 6.4 0.00 0.00 0.00 76 1012.3
20260905235058 22 24 3.2 6.4 0.00 0.00 0.00 78 1012.2
20260905234158 22 355 1.6 4.8 0.00 0.00 0.00 79 1012.1
20260905233511 22 351 1.6 6.4 0.00 0.00 0.00 79 1012.2
20260905232358 22 7 1.6 6.4 0.00 0.00 0.00 80 1012.1
20260905231458 22 11 1.6 6.4 0.00 0.00 0.00 80 1012.1
20260905230558 22 360 1.6 4.8 0.00 0.00 0.00 80 1012.1
20260905225910 22 12 1.6 4.8 0.00 0.00 0.00 80 1012.1
20260905225013 22 23 1.6 4.8 0.00 0.00 0.00 80 1012.0
20260905224110 22 358 3.2 8.0 0.00 0.00 0.00 80 1012.0
20260905223213 22 8 3.2 6.4 0.00 0.00 0.00 80 1012.0
20260905222058 22 13 3.2 9.7 0.00 0.00 0.00 80 1011.9
20260905221158 23 357 3.2 9.7 0.00 0.00 0.00 80 1011.8
20260905215413 23 9 4.8 9.7 0.00 0.00 0.00 79 1011.7
20260905214725 23 360 3.2 8.0 0.00 0.00 0.00 79 1011.5
20260905213613 23 11 1.6 4.8 0.00 0.00 0.00 78 1011.4
20260905212713 23 353 1.6 4.8 0.00 0.00 0.00 77 1011.4
20260905212027 24 330 0.0 4.8 0.00 0.00 0.00 77 1011.3
20260905211124 24 23 1.6 4.8 0.00 0.00 0.00 77 1011.1
20260905210226 24 58 0.0 3.2 0.00 0.00 0.00 76 1011.1
20260905205324 24 36 1.6 6.4 0.00 0.00 0.00 75 1011.0
20260905204213 24 10 1.6 6.4 0.00 0.00 0.00 74 1011.2
20260905203313 25 36 0.0 3.2 0.00 0.00 0.00 73 1011.0
20260905202413 25 135 0.0 3.2 0.00 0.00 0.00 73 1011.0
20260905201723 25 137 0.0 3.2 0.00 0.00 0.00 73 1010.9
20260905200613 25 102 0.0 3.2 0.00 0.00 0.00 71 1010.8
20260905195713 25 135 0.0 3.2 0.00 0.00 0.00 71 1010.7
20260905194813 25 135 0.0 3.2 0.00 0.00 0.00 70 1010.6
20260905194122 25 135 0.0 3.2 0.00 0.00 0.00 70 1010.5
20260905193013 25 0 0.0 0.0 0.00 0.00 0.00 68 1010.3
20260905192113 26 135 0.0 3.2 0.00 0.00 0.00 68 1010.2
20260905191213 26 78 0.0 3.2 0.00 0.00 0.00 67 1010.1
20260905190527 26 74 0.0 3.2 0.00 0.00 0.00 66 1010.1
20260905185413 26 135 0.0 3.2 0.00 0.00 0.00 66 1010.0
20260905184727 26 135 0.0 3.2 0.00 0.00 0.00 66 1009.7
20260905183824 26 45 0.0 3.2 0.00 0.00 0.00 65 1009.6
20260905182926 26 45 0.0 4.8 0.00 0.00 0.00 64 1009.6
20260905181813 27 45 0.0 3.2 0.00 0.00 0.00 62 1009.4
20260905181126 27 45 0.0 3.2 0.00 0.00 0.00 62 1009.4
20260905180223 27 135 0.0 3.2 0.00 0.00 0.00 60 1009.1
20260905175326 28 135 0.0 3.2 0.00 0.00 0.00 59 1009.1
20260905174213 28 135 0.0 1.6 0.00 0.00 0.00 57 1009.0
20260905173313 28 171 0.0 3.2 0.00 0.00 0.00 56 1008.9
20260905172623 29 180 0.0 1.6 0.00 0.00 0.00 56 1008.7
20260905171513 29 180 0.0 3.2 0.00 0.00 0.00 55 1008.6
20260905170613 29 179 1.6 4.8 0.00 0.00 0.00 54 1008.6
20260905165713 30 165 3.2 6.4 0.00 0.00 0.00 53 1008.4
20260905165027 30 172 3.2 6.4 0.00 0.00 0.00 52 1008.3
20260905163913 30 158 1.6 6.4 0.00 0.00 0.00 51 1008.4
20260905163013 30 162 1.6 9.7 0.00 0.00 0.00 50 1008.3
20260905162114 31 170 3.2 9.7 0.00 0.00 0.00 50 1008.4
20260905161426 31 168 3.2 9.7 0.00 0.00 0.00 49 1008.2
20260905160524 31 176 4.8 12.9 0.00 0.00 0.00 48 1008.2
20260905155626 31 140 1.6 9.7 0.00 0.00 0.00 49 1008.1
20260905154513 31 104 3.2 11.3 0.00 0.00 0.00 49 1008.1
20260905153613 31 100 4.8 12.9 0.00 0.00 0.00 47 1007.9
20260905152713 32 128 3.2 9.7 0.00 0.00 0.00 44 1007.9
20260905151813 32 84 1.6 6.4 0.00 0.00 0.00 38 1007.9
20260905150913 32 83 3.2 6.4 0.00 0.00 0.00 35 1007.8
20260905150013 32 25 1.6 8.0 0.00 0.00 0.00 36 1007.9
20260905145322 32 16 3.2 8.0 0.00 0.00 0.00 36 1007.9
20260905144425 32 346 3.2 9.7 0.00 0.00 0.00 36 1007.8
20260905143527 32 101 4.8 11.3 0.00 0.00 0.00 36 1007.9
20260905142625 32 106 1.6 6.4 0.00 0.00 0.00 34 1008.0
20260905141727 33 27 1.6 6.4 0.00 0.00 0.00 34 1008.0
20260905140613 32 188 3.2 6.4 0.00 0.00 0.00 35 1008.1
20260905135927 33 211 3.2 6.4 0.00 0.00 0.00 35 1008.1
20260905134813 32 176 1.6 9.7 0.00 0.00 0.00 36 1008.1
20260905133913 32 137 1.6 9.7 0.00 0.00 0.00 36 1008.1
20260905133013 32 94 3.2 8.0 0.00 0.00 0.00 36 1008.2
20260905132113 32 105 1.6 6.4 0.00 0.00 0.00 35 1008.4
20260905131213 32 224 3.2 6.4 0.00 0.00 0.00 37 1008.3
20260905130313 32 171 3.2 6.4 0.00 0.00 0.00 37 1008.5
20260905125413 32 351 1.6 8.0 0.00 0.00 0.00 37 1008.4
20260905124513 32 31 4.8 12.9 0.00 0.00 0.00 37 1008.6
20260905123823 32 60 3.2 8.0 0.00 0.00 0.00 36 1008.7
20260905122925 32 110 1.6 6.4 0.00 0.00 0.00 37 1008.8
20260905122027 32 160 1.6 6.4 0.00 0.00 0.00 38 1008.9
20260905121125 31 139 4.8 11.3 0.00 0.00 0.00 40 1009.1
20260905120227 30 107 4.8 11.3 0.00 0.00 0.00 42 1009.2
20260905115324 30 81 3.2 11.3 0.00 0.00 0.00 42 1009.0
20260905114427 31 19 3.2 11.3 0.00 0.00 0.00 42 1008.9
20260905113314 31 99 1.6 11.3 0.00 0.00 0.00 43 1009.0
20260905112626 31 149 1.6 6.4 0.00 0.00 0.00 45 1009.1
20260905111724 30 101 3.2 9.7 0.00 0.00 0.00 47 1009.1
20260905110826 30 234 3.2 9.7 0.00 0.00 0.00 47 1009.2
20260905105923 30 25 4.8 12.9 0.00 0.00 0.00 48 1009.3
20260905104813 30 331 3.2 8.0 0.00 0.00 0.00 48 1009.2